STARLINK-1089 (44967 NORAD) Tracking and Keplerian Element Data

This shows tracking and keplerian element data for the satellite.

Feedback or suggestion? Click here.




ElementValue
Catalog44967
NameSTARLINK-1089
Epoch Orbit2794
Epoch Day187.50002315
Epoch Year2020
RAAN253.5222
Inclination52.9986
Eccentricity8.33E-05
Argument of Perigee124.8078
Mean Anonmoly90.3757
Mean Motion15.05576667
Decay Rate-1.951E-05
L11 44967U 20001BF 20187.50002315 -.00001951 00000-0 -11478-3 0 9999
L22 44967 52.9986 253.5222 0000833 124.8078 90.3757 15.05576667 27947

Live tracking and technical data element details for STARLINK-1089 (NORAD 44967). STARLINK-1089 can be tracked NOW for your location showing map with azimuth and elevation plus other details from your city location.

Track the satellite on the map from your city or location and see movement details for azimuth, elevation, latitude, longitude, range, height, and movement on the map or in text.







IsCatalogInMostPopularTable: catalog: 44967, numindb: 37
Update: records affected: 1



GetName: 44967 STARLINK-1089

Hit Count: updated at: Mon, 06 Jul 2020 04:24:49 GMT